EW7590 Weather Reports


time (UTC)temp
F
wind
direction
speed
knots
gust
knots
rain 1hr
in
rain 24hr
in
rain mn
in
humidity
%
barometer
mb
20260505024002 60 181 5.2 13.9 0.00 0.00 0.00 49 1009.8
20260505023501 61 196 6.1 13.9 0.00 0.00 0.00 49 1009.7
20260505023002 61 182 5.2 14.8 0.00 0.00 0.00 48 1009.6
20260505022502 61 179 7.8 14.8 0.00 0.00 0.00 48 1009.8
20260505022023 61 209 5.2 12.2 0.00 0.00 0.00 48 1009.8
20260505021523 61 189 4.3 12.2 0.00 0.00 0.00 48 1009.8
20260505021002 61 177 6.1 12.2 0.00 0.00 0.00 47 1009.7
20260505020523 62 184 5.2 10.4 0.00 0.00 0.00 47 1009.7
20260505020002 62 184 5.2 10.4 0.00 0.00 0.00 47 1009.7
20260505015523 62 206 6.1 10.4 0.00 0.00 0.00 47 1009.7
20260505015001 62 197 4.3 11.3 0.00 0.00 0.00 46 1009.6
20260505014502 62 204 5.2 14.8 0.00 0.00 0.00 46 1009.5
20260505014001 62 194 6.1 14.8 0.00 0.00 0.00 46 1009.4
20260505013502 62 185 5.2 14.8 0.00 0.00 0.00 46 1009.3
20260505013002 63 184 7.8 14.8 0.00 0.00 0.00 45 1009.3
20260505012501 63 207 6.1 13.9 0.00 0.00 0.00 45 1009.1
20260505012002 63 201 7.0 12.2 0.00 0.00 0.00 45 1009.1
20260505011501 63 188 4.3 12.2 0.00 0.00 0.00 45 1008.9
20260505011003 63 196 6.1 12.2 0.00 0.00 0.00 45 1008.9
20260505010501 63 197 5.2 13.9 0.00 0.00 0.00 44 1008.8
20260505010023 64 193 7.8 13.9 0.00 0.00 0.00 43 1008.6
20260505005501 64 188 7.8 13.9 0.00 0.00 0.00 43 1008.5
20260505005002 64 207 7.0 17.4 0.00 0.00 0.00 43 1008.4
20260505004544 64 192 7.8 17.4 0.00 0.00 0.00 43 1008.2
20260505004002 64 190 7.8 14.8 0.00 0.00 0.00 42 1008.1
20260505003502 65 202 7.8 15.6 0.00 0.00 0.00 42 1007.9
20260505003002 65 197 8.7 15.6 0.00 0.00 0.00 42 1007.8
20260505002502 65 207 5.2 12.2 0.00 0.00 0.00 41 1007.7
20260505002002 66 208 6.1 13.9 0.00 0.00 0.00 40 1007.4
20260505001501 66 206 6.1 13.9 0.00 0.00 0.00 40 1007.2
20260505001002 66 194 7.0 14.8 0.00 0.00 0.00 39 1007.2
20260505000502 67 197 7.8 16.5 0.00 0.00 0.00 38 1007.0
20260505000002 67 193 7.8 16.5 0.00 0.00 0.00 37 1006.9
20260504235502 68 190 7.8 13.0 0.00 0.00 0.00 35 1006.8
20260504235002 67 195 2.6 5.2 0.00 0.00 0.00 35 1006.6
20260504234523 68 206 2.6 5.2 0.00 0.00 0.00 34 1006.6
20260504234023 68 197 3.5 13.0 0.00 0.00 0.00 34 1006.6
20260504233501 68 202 5.2 13.0 0.00 0.00 0.00 34 1006.4
20260504233002 68 214 2.6 5.2 0.00 0.00 0.00 34 1006.5
20260504232502 68 225 1.7 5.2 0.00 0.00 0.00 34 1006.4
20260504232002 69 195 2.6 7.8 0.00 0.00 0.00 33 1006.3
20260504231502 69 216 1.7 7.8 0.00 0.00 0.00 33 1006.3
20260504231002 69 199 2.6 8.7 0.00 0.00 0.00 33 1006.2
20260504230502 70 220 4.3 9.6 0.00 0.00 0.00 32 1006.2
20260504230023 70 205 2.6 13.9 0.00 0.00 0.00 32 1006.1
20260504225502 70 212 7.0 16.5 0.00 0.00 0.00 32 1006.1
20260504225002 70 200 4.3 16.5 0.00 0.00 0.00 32 1006.1
20260504224501 70 199 5.2 12.2 0.00 0.00 0.00 31 1006.0
20260504224002 71 215 6.1 11.3 0.00 0.00 0.00 31 1006.1
20260504223501 71 210 4.3 8.7 0.00 0.00 0.00 31 1006.0
20260504223002 71 206 3.5 13.9 0.00 0.00 0.00 31 1006.0
20260504222502 71 194 3.5 13.9 0.00 0.00 0.00 31 1005.9
20260504222002 71 227 3.5 10.4 0.00 0.00 0.00 31 1005.9
20260504221523 71 217 3.5 14.8 0.00 0.00 0.00 30 1005.9
20260504221002 71 215 5.2 14.8 0.00 0.00 0.00 30 1006.0
20260504220502 71 206 7.0 13.9 0.00 0.00 0.00 31 1006.1
20260504220002 71 206 5.2 11.3 0.00 0.00 0.00 31 1006.0
20260504215502 71 190 3.5 13.9 0.00 0.00 0.00 30 1006.1
20260504215002 72 218 6.1 17.4 0.00 0.00 0.00 30 1006.0
20260504214501 72 203 3.5 17.4 0.00 0.00 0.00 30 1005.9
20260504214023 72 221 5.2 15.6 0.00 0.00 0.00 30 1005.9
20260504213501 72 206 7.0 13.9 0.00 0.00 0.00 30 1005.9
20260504213002 72 217 6.1 13.0 0.00 0.00 0.00 30 1005.9
20260504212502 72 206 6.1 13.0 0.00 0.00 0.00 29 1005.9
20260504212001 72 253 3.5 11.3 0.00 0.00 0.00 30 1005.9
20260504211502 72 198 5.2 11.3 0.00 0.00 0.00 30 1005.9
20260504211001 72 230 4.3 20.0 0.00 0.00 0.00 29 1005.9
20260504210502 73 206 5.2 20.0 0.00 0.00 0.00 29 1005.8
20260504210003 73 205 7.0 19.1 0.00 0.00 0.00 30 1006.0
20260504205502 72 201 5.2 10.4 0.00 0.00 0.00 29 1005.9
20260504205023 72 208 6.1 11.3 0.00 0.00 0.00 29 1006.0
20260504204502 73 211 4.3 15.6 0.00 0.00 0.00 29 1005.8
20260504204002 73 197 7.8 15.6 0.00 0.00 0.00 28 1006.0
20260504203502 73 195 6.1 15.6 0.00 0.00 0.00 28 1005.9
20260504203023 72 198 7.8 15.6 0.00 0.00 0.00 28 1006.0
20260504202501 72 201 4.3 13.0 0.00 0.00 0.00 30 1005.9
20260504202002 73 210 6.1 17.4 0.00 0.00 0.00 28 1005.9
20260504201522 73 202 7.8 17.4 0.00 0.00 0.00 28 1005.9
20260504201002 73 230 6.1 14.8 0.00 0.00 0.00 29 1005.9
20260504200502 73 207 7.0 14.8 0.00 0.00 0.00 28 1006.0
20260504200024 73 217 4.3 13.9 0.00 0.00 0.00 29 1006.0
20260504195501 74 217 7.0 13.9 0.00 0.00 0.00 27 1006.2
20260504195023 73 217 4.3 11.3 0.00 0.00 0.00 27 1006.1
20260504194523 73 196 5.2 15.6 0.00 0.00 0.00 27 1006.3
20260504194002 73 202 7.8 17.4 0.00 0.00 0.00 27 1006.2
20260504193502 73 204 7.0 17.4 0.00 0.00 0.00 27 1006.0
20260504193023 73 208 8.7 16.5 0.00 0.00 0.00 27 1006.2
20260504192503 72 213 3.5 16.5 0.00 0.00 0.00 27 1006.2
20260504192002 73 195 7.8 18.2 0.00 0.00 0.00 26 1006.2
20260504191503 73 215 7.8 19.1 0.00 0.00 0.00 27 1006.1
20260504191002 73 229 5.2 19.1 0.00 0.00 0.00 27 1006.2
20260504190501 73 228 5.2 14.8 0.00 0.00 0.00 27 1006.3
20260504190002 73 194 6.1 13.9 0.00 0.00 0.00 27 1006.4
20260504185502 73 214 6.1 13.9 0.00 0.00 0.00 28 1006.3
20260504185023 73 216 4.3 16.5 0.00 0.00 0.00 28 1006.3
20260504184502 73 219 7.8 16.5 0.00 0.00 0.00 27 1006.5
20260504184003 72 219 6.1 15.6 0.00 0.00 0.00 27 1006.5
20260504183502 73 248 5.2 15.6 0.00 0.00 0.00 27 1006.3
20260504183023 72 234 5.2 15.6 0.00 0.00 0.00 26 1006.5
20260504182502 73 210 6.1 20.9 0.00 0.00 0.00 26 1006.4
20260504182002 73 194 7.0 20.9 0.00 0.00 0.00 28 1006.4
20260504181501 73 204 4.3 12.2 0.00 0.00 0.00 28 1006.4
20260504181002 72 206 6.1 14.8 0.00 0.00 0.00 29 1006.3
20260504180502 71 215 7.8 20.0 0.00 0.00 0.00 27 1006.5
20260504180023 72 187 7.8 20.0 0.00 0.00 0.00 28 1006.5
20260504175544 72 193 9.6 13.9 0.00 0.00 0.00 27 1006.5
20260504175002 72 213 7.0 13.0 0.00 0.00 0.00 28 1006.7
20260504174502 72 198 6.1 13.0 0.00 0.00 0.00 28 1006.7
20260504174002 71 199 5.2 17.4 0.00 0.00 0.00 29 1006.8
20260504173502 71 211 7.0 17.4 0.00 0.00 0.00 30 1007.0
20260504173002 71 225 5.2 15.6 0.00 0.00 0.00 30 1006.8
20260504172502 71 198 8.7 22.6 0.00 0.00 0.00 28 1006.9
20260504172002 71 236 5.2 22.6 0.00 0.00 0.00 29 1007.0
20260504171502 71 214 9.6 19.1 0.00 0.00 0.00 28 1007.2
20260504171002 71 210 7.0 19.1 0.00 0.00 0.00 29 1007.0
20260504170502 71 207 7.8 21.7 0.00 0.00 0.00 29 1007.2
20260504151002 66 211 4.3 17.4 0.00 0.00 0.00 36 1008.2
20260504150502 66 207 9.6 16.5 0.00 0.00 0.00 34 1008.4
20260504141002 63 248 4.3 16.5 0.00 0.00 0.00 38 1008.7
20260504140523 64 220 5.2 11.3 0.00 0.00 0.00 37 1008.8
20260504130523 59 204 7.0 17.4 0.00 0.00 0.00 41 1009.2
20260504110502 48 209 1.7 4.3 0.00 0.00 0.00 55 1010.1
20260504100502 46 219 2.6 7.0 0.00 0.00 0.00 59 1010.1
20260504082002 45 249 0.0 2.6 0.00 0.00 0.00 58 1010.1
20260504081502 45 202 0.0 3.5 0.00 0.00 0.00 58 1010.1
20260504081002 45 214 1.7 3.5 0.00 0.00 0.00 58 1010.0
20260504080502 45 204 1.7 4.3 0.00 0.00 0.00 58 1010.0
20260504050502 42 213 0.9 3.5 0.00 0.00 0.00 59 1009.8
20260504050002 42 231 0.9 3.5 0.00 0.00 0.00 58 1009.9
20260504045502 41 244 0.9 3.5 0.00 0.00 0.00 59 1010.0
20260504045002 41 222 1.7 3.5 0.00 0.00 0.00 59 1009.8
20260504044502 41 207 0.9 2.6 0.00 0.00 0.00 59 1009.9
20260504044002 41 218 1.7 2.6 0.00 0.00 0.00 60 1009.9
20260504043502 41 221 1.7 3.5 0.00 0.00 0.00 59 1009.9
20260504043002 41 235 0.9 5.2 0.00 0.00 0.00 60 1009.8
20260504042501 41 214 0.9 5.2 0.00 0.00 0.00 61 1009.8
20260504042002 40 232 0.9 2.6 0.00 0.00 0.00 62 1009.9
20260504041525 40 233 0.9 1.7 0.00 0.00 0.00 62 1009.9
20260504041023 41 221 0.9 1.7 0.00 0.00 0.00 60 1009.9
20260504040502 41 245 0.9 1.7 0.00 0.00 0.00 60 1009.8
20260504040003 41 234 0.9 1.7 0.00 0.00 0.00 60 1009.7
20260504035502 41 256 0.0 0.9 0.00 0.00 0.00 60 1009.6
20260504035023 42 256 0.0 0.9 0.00 0.00 0.00 58 1009.6
20260504034502 42 256 0.0 1.7 0.00 0.00 0.00 59 1009.5
20260504034002 42 257 0.9 1.7 0.00 0.00 0.00 59 1009.5
20260504033502 42 260 0.9 1.7 0.00 0.00 0.00 59 1009.4
20260504033002 42 265 0.9 1.7 0.00 0.00 0.00 59 1009.4
20260504032502 42 220 0.0 1.7 0.00 0.00 0.00 59 1009.4
20260504032002 42 220 0.9 1.7 0.00 0.00 0.00 58 1009.5
20260504031502 42 274 0.0 1.7 0.00 0.00 0.00 59 1009.5
20260504031003 42 274 0.9 1.7 0.00 0.00 0.00 58 1009.5
20260504030502 42 274 0.9 1.7 0.00 0.00 0.00 58 1009.5
20260504030023 42 274 0.9 1.7 0.00 0.00 0.00 58 1009.6
20260504025502 42 259 0.9 1.7 0.00 0.00 0.00 58 1009.5
20260504025023 43 259 0.9 2.6 0.00 0.00 0.00 57 1009.5
20260504024502 43 210 0.9 2.6 0.00 0.00 0.00 57 1009.4